Vero Beach, FL

5:43 PM EDT on July 27, 2017 (GMT -0400)
Vero Beach Municipal

Weather History for KVRB - May, 2013

Change the Weather History Date:

Monday, May 27, 2013

  Actual Average Record
Temperature  
Mean Temperature 77 °F 78 °F  
Max Temperature 83 °F 86 °F 98 °F (1953)
Min Temperature 71 °F 70 °F 55 °F (1979)
Degree Days  
Heating Degree Days 0 0  
Month to date heating degree days 0 0  
Since 1 July heating degree days 398 455  
Cooling Degree Days 12 13  
Month to date cooling degree days 254 293  
Year to date cooling degree days 845 751  
Growing Degree Days 26 (Base 50)    
Moisture  
Dew Point 66 °F    
Average Humidity 66    
Maximum Humidity 74    
Minimum Humidity 58    
Precipitation  
Precipitation 0.00 in 0.14 in 2.67 in (1990)
Month to date precipitation 7.64 2.73  
Year to date precipitation 14.67 14.74  
Sea Level Pressure  
Sea Level Pressure 30.16 in    
Wind  
Wind Speed 12 mph (East)    
Max Wind Speed 17 mph    
Max Gust Speed 24 mph    
Visibility 10 miles    
Events      
T = Trace of Precipitation, MM = Missing Value Source: NWS Daily Summary

Daily Weather History Graph

Daily Weather History Graph

Search for Another Location

Airport or City:

Trip Planner

Search our weather history database for the weather conditions in past years. The results will help you decide how hot, cold, wet, or windy it might be!

Date:

Astronomy

May. 27, 2013 Rise Set
Actual Time 6:27 AM EDT 8:10 PM EDT
Civil Twilight 6:01 AM EDT 8:36 PM EDT
Nautical Twilight 5:30 AM EDT 9:08 PM EDT
Astronomical Twilight 4:57 AM EDT 9:40 PM EDT
Moon 10:54 PM EDT 8:59 AM EDT
Length of Visible Light 14h 35m
Length of Day
13h 43m
Waning Gibbous, 91% of the Moon is Illuminated
May 27
Waning Gibbous
May 31
Last Quarter
Jun 8
New
Jun 16
First Quarter
Jun 23
Full

Hourly Weather History & Observations

Time (EDT) Temp. Heat Index Dew Point Humidity Pressure Visibility Wind Dir Wind Speed Gust Speed Precip Events Conditions
12:53 AM 75.9 °F - 60.1 °F 58% 30.19 in 10.0 mi East 11.5 mph - N/A   Partly Cloudy
1:53 AM 75.0 °F - 61.0 °F 62% 30.19 in 10.0 mi East 9.2 mph - N/A   Mostly Cloudy
2:53 AM 73.9 °F - 61.0 °F 64% 30.17 in 10.0 mi East 8.1 mph - N/A   Mostly Cloudy
3:53 AM 73.0 °F - 61.0 °F 66% 30.16 in 10.0 mi East 6.9 mph - N/A   Scattered Clouds
4:53 AM 73.0 °F - 60.1 °F 64% 30.14 in 10.0 mi East 6.9 mph - N/A   Clear
5:53 AM 71.1 °F - 61.0 °F 70% 30.14 in 10.0 mi East 5.8 mph - N/A   Clear
6:53 AM 71.1 °F - 61.0 °F 70% 30.16 in 10.0 mi East 5.8 mph - N/A   Partly Cloudy
7:53 AM 75.9 °F - 63.0 °F 64% 30.17 in 10.0 mi East 8.1 mph - N/A   Partly Cloudy
8:53 AM 79.0 °F - 64.0 °F 60% 30.17 in 10.0 mi ENE 8.1 mph - N/A   Partly Cloudy
9:53 AM 80.1 °F 82.1 °F 66.0 °F 62% 30.18 in 10.0 mi East 11.5 mph - N/A   Scattered Clouds
10:53 AM 81.0 °F 83.3 °F 66.9 °F 62% 30.18 in 10.0 mi East 13.8 mph - N/A   Scattered Clouds
11:53 AM 82.0 °F 84.5 °F 66.9 °F 60% 30.19 in 10.0 mi ENE 12.7 mph - N/A   Partly Cloudy
12:53 PM 81.0 °F 83.8 °F 68.0 °F 65% 30.19 in 10.0 mi East 11.5 mph - N/A   Overcast
1:53 PM 82.0 °F 84.9 °F 68.0 °F 62% 30.18 in 10.0 mi East 13.8 mph - N/A   Mostly Cloudy
2:00 PM 80.6 °F 83.2 °F 68.0 °F 65% 30.18 in 10.0 mi NE 15.0 mph - N/A   Mostly Cloudy
2:53 PM 81.0 °F 83.8 °F 68.0 °F 65% 30.17 in 10.0 mi ENE 16.1 mph - N/A   Scattered Clouds
3:53 PM 81.0 °F 83.8 °F 68.0 °F 65% 30.14 in 10.0 mi ENE 13.8 mph 20.7 mph N/A   Mostly Cloudy
4:42 PM 80.6 °F 83.9 °F 69.8 °F 70% 30.14 in 10.0 mi East 10.4 mph - N/A   Mostly Cloudy
4:53 PM 79.0 °F - 68.0 °F 69% 30.14 in 10.0 mi East 12.7 mph - N/A   Scattered Clouds
5:53 PM 80.1 °F 82.7 °F 68.0 °F 67% 30.12 in 10.0 mi East 13.8 mph - N/A   Partly Cloudy
6:53 PM 79.0 °F - 68.0 °F 69% 30.12 in 10.0 mi ENE 13.8 mph - N/A   Overcast
7:53 PM 78.1 °F - 68.0 °F 71% 30.13 in 10.0 mi ENE 15.0 mph - N/A   Mostly Cloudy
8:53 PM 77.0 °F - 68.0 °F 74% 30.13 in 10.0 mi East 13.8 mph - N/A   Mostly Cloudy
9:53 PM 77.0 °F - 68.0 °F 74% 30.14 in 10.0 mi East 16.1 mph - N/A   Partly Cloudy
10:53 PM 77.0 °F - 66.9 °F 71% 30.15 in 10.0 mi East 15.0 mph 23.0 mph N/A   Partly Cloudy
11:53 PM 77.0 °F - 68.0 °F 74% 30.15 in 10.0 mi East 13.8 mph 20.7 mph N/A   Partly Cloudy